Total_Precipitation_Accumulation
0.02 0.05 0.14 0.30 0.41 0.75 0.94 0.65 0.36 0.23 0.12 0.10 0.10 0.07 0.04 0.03 0.03 0.03 0.04 0.07 0.10 0.12 0.11 0.08 0.10 0.09 0.09 0.08 0.07 0.07 0.07 0.07 0.05 0.05 0.03 0.02 0.01 0.01 0.01 0.01 0.01 0.01 0.01
0.02 0.04 0.10 0.19 0.31 0.45 0.50 0.50 0.45 0.39 0.23 0.17 0.15 0.13 0.10 0.07 0.08 0.11 0.18 0.22 0.19 0.13 0.10 0.09 0.06 0.06 0.06 0.06 0.06 0.05 0.03 0.03 0.02 0.03 0.02 0.01 0.00 0.00 0.00 0.00 0.00 0.00 0.00
0.02 0.03 0.08 0.17 0.27 0.34 0.39 0.43 0.43 0.40 0.27 0.18 0.14 0.15 0.17 0.19 0.23 0.29 0.33 0.28 0.19 0.12 0.08 0.05 0.04 0.03 0.02 0.03 0.03 0.03 0.04 0.03 0.01 0.01 0.02 0.02 0.01 0.00 0.00 0.00 0.00 0.00 0.00
0.02 0.03 0.07 0.14 0.24 0.31 0.33 0.32 0.34 0.31 0.26 0.17 0.13 0.17 0.23 0.26 0.27 0.21 0.18 0.13 0.07 0.05 0.03 0.02 0.01 0.01 0.01 0.01 0.01 0.02 0.02 0.02 0.01 0.00 0.01 0.01 0.01 0.02 0.01 0.00 0.00 0.00 0.00
0.02 0.03 0.06 0.12 0.22 0.27 0.27 0.28 0.26 0.22 0.17 0.14 0.12 0.14 0.12 0.09 0.05 0.04 0.02 0.02 0.01 0.00 0.00 0.00 0.01 0.01 0.01 0.01 0.01 0.01 0.01 0.01 0.01 0.01 0.01 0.01 0.01 0.02 0.03 0.02 0.01 0.00 0.00
0.02 0.03 0.06 0.11 0.15 0.18 0.20 0.21 0.17 0.14 0.10 0.08 0.05 0.03 0.02 0.01 0.00 0.00 0.00 0.00 0.00 0.00 0.00 0.00 0.00 0.01 0.01 0.01 0.01 0.01 0.01 0.01 0.01 0.01 0.01 0.02 0.02 0.02 0.03 0.03 0.02 0.01 0.00
0.02 0.04 0.07 0.09 0.11 0.12 0.12 0.11 0.09 0.07 0.05 0.03 0.01 0.01 0.00 0.00 0.00 0.00 0.00 0.00 0.00 0.00 0.00 0.00 0.00 0.00 0.01 0.01 0.01 0.01 0.01 0.01 0.02 0.02 0.02 0.02 0.02 0.03 0.04 0.06 0.05 0.03 0.01
0.03 0.05 0.07 0.07 0.08 0.08 0.07 0.05 0.04 0.03 0.02 0.01 0.01 0.00 0.00 0.00 0.00 0.00 0.00 0.00 0.00 0.00 0.00 0.00 0.00 0.00 0.01 0.01 0.01 0.01 0.01 0.01 0.02 0.02 0.03 0.04 0.03 0.05 0.06 0.10 0.12 0.11 0.06
0.05 0.07 0.07 0.07 0.07 0.05 0.04 0.03 0.03 0.02 0.01 0.01 0.00 0.00 0.00 0.00 0.00 0.00 0.00 0.00 0.00 0.00 0.00 0.00 0.01 0.02 0.02 0.02 0.03 0.02 0.02 0.03 0.03 0.04 0.04 0.04 0.05 0.06 0.07 0.09 0.11 0.15 0.14
0.08 0.08 0.07 0.06 0.05 0.04 0.04 0.04 0.03 0.02 0.01 0.00 0.00 0.00 0.00 0.00 0.00 0.00 0.00 0.01 0.01 0.01 0.01 0.02 0.03 0.03 0.03 0.03 0.03 0.03 0.04 0.05 0.05 0.06 0.06 0.06 0.05 0.06 0.06 0.07 0.09 0.15 0.21
0.10 0.09 0.07 0.06 0.06 0.05 0.05 0.04 0.03 0.02 0.01 0.01 0.01 0.01 0.00 0.00 0.00 0.00 0.01 0.01 0.01 0.02 0.03 0.03 0.03 0.03 0.02 0.02 0.04 0.05 0.05 0.05 0.04 0.04 0.04 0.04 0.04 0.05 0.05 0.07 0.09 0.11 0.17
0.09 0.07 0.06 0.05 0.05 0.05 0.05 0.05 0.04 0.03 0.03 0.02 0.01 0.00 0.00 0.01 0.01 0.01 0.01 0.02 0.02 0.03 0.03 0.03 0.03 0.02 0.02 0.03 0.04 0.04 0.03 0.03 0.03 0.03 0.04 0.04 0.04 0.05 0.05 0.06 0.08 0.10 0.15
0.06 0.05 0.05 0.05 0.06 0.07 0.06 0.06 0.05 0.04 0.02 0.01 0.00 0.00 0.00 0.01 0.01 0.02 0.02 0.02 0.03 0.03 0.04 0.03 0.03 0.02 0.03 0.04 0.03 0.03 0.02 0.03 0.03 0.04 0.04 0.05 0.06 0.05 0.05 0.07 0.09 0.11 0.15
0.07 0.07 0.08 0.09 0.09 0.09 0.08 0.06 0.04 0.02 0.01 0.00 0.00 0.00 0.01 0.01 0.02 0.02 0.03 0.03 0.03 0.03 0.02 0.02 0.02 0.02 0.03 0.02 0.02 0.01 0.02 0.02 0.03 0.04 0.06 0.07 0.07 0.07 0.09 0.10 0.12 0.15 0.16
0.13 0.16 0.17 0.15 0.12 0.10 0.07 0.05 0.03 0.02 0.01 0.00 0.01 0.01 0.01 0.01 0.02 0.03 0.03 0.02 0.02 0.01 0.01 0.01 0.01 0.02 0.02 0.01 0.00 0.00 0.01 0.01 0.02 0.03 0.06 0.07 0.07 0.11 0.12 0.11 0.12 0.16 0.17
0.27 0.27 0.22 0.16 0.11 0.09 0.08 0.05 0.04 0.02 0.01 0.01 0.01 0.01 0.01 0.01 0.02 0.02 0.01 0.01 0.01 0.01 0.01 0.01 0.01 0.01 0.01 0.00 0.00 0.00 0.00 0.01 0.02 0.04 0.05 0.03 0.03 0.03 0.04 0.07 0.10 0.14 0.17
0.27 0.21 0.16 0.12 0.11 0.11 0.09 0.07 0.04 0.02 0.01 0.01 0.01 0.01 0.00 0.01 0.01 0.00 0.00 0.01 0.01 0.01 0.01 0.01 0.01 0.01 0.01 0.00 0.00 0.00 0.00 0.01 0.03 0.05 0.03 0.02 0.01 0.02 0.03 0.05 0.08 0.12 0.17
0.16 0.14 0.12 0.13 0.14 0.14 0.11 0.07 0.04 0.02 0.01 0.01 0.00 0.00 0.00 0.00 0.00 0.00 0.01 0.01 0.01 0.01 0.01 0.01 0.01 0.01 0.01 0.00 0.00 0.00 0.00 0.01 0.03 0.03 0.03 0.03 0.02 0.03 0.05 0.07 0.12 0.14 0.16
0.14 0.14 0.16 0.19 0.19 0.16 0.10 0.05 0.03 0.01 0.00 0.00 0.00 0.00 0.00 0.00 0.00 0.01 0.01 0.01 0.01 0.01 0.01 0.01 0.01 0.01 0.01 0.00 0.00 0.00 0.01 0.01 0.01 0.02 0.02 0.04 0.03 0.05 0.08 0.11 0.16 0.19 0.25
0.13 0.19 0.24 0.25 0.21 0.14 0.08 0.05 0.02 0.01 0.00 0.00 0.00 0.00 0.00 0.00 0.01 0.01 0.01 0.01 0.01 0.01 0.00 0.01 0.01 0.01 0.01 0.00 0.00 0.01 0.01 0.01 0.01 0.01 0.01 0.03 0.05 0.06 0.09 0.14 0.20 0.27 0.38
0.20 0.26 0.27 0.24 0.17 0.09 0.04 0.02 0.01 0.01 0.00 0.00 0.00 0.00 0.00 0.00 0.00 0.00 0.01 0.01 0.01 0.00 0.00 0.01 0.01 0.01 0.01 0.01 0.00 0.01 0.02 0.03 0.03 0.03 0.03 0.05 0.10 0.10 0.11 0.19 0.29 0.43 0.53
0.26 0.27 0.25 0.18 0.11 0.05 0.02 0.01 0.01 0.00 0.00 0.00 0.00 0.00 0.00 0.00 0.00 0.00 0.00 0.00 0.00 0.00 0.00 0.00 0.01 0.01 0.01 0.01 0.00 0.00 0.01 0.03 0.04 0.07 0.09 0.13 0.17 0.14 0.18 0.29 0.45 0.59 0.67
0.28 0.24 0.18 0.12 0.06 0.02 0.01 0.01 0.01 0.00 0.00 0.00 0.00 0.00 0.00 0.00 0.00 0.00 0.00 0.00 0.00 0.00 0.00 0.00 0.01 0.01 0.01 0.01 0.01 0.01 0.01 0.03 0.05 0.10 0.19 0.23 0.21 0.25 0.33 0.50 0.64 0.69 0.67
0.17 0.11 0.06 0.03 0.02 0.01 0.00 0.00 0.00 0.00 0.00 0.00 0.00 0.00 0.00 0.00 0.00 0.00 0.00 0.00 0.00 0.00 0.01 0.01 0.02 0.02 0.02 0.02 0.03 0.03 0.03 0.05 0.05 0.08 0.18 0.26 0.29 0.40 0.54 0.64 0.68 0.69 0.71
0.04 0.02 0.02 0.01 0.00 0.00 0.00 0.00 0.00 0.00 0.00 0.00 0.00 0.00 0.00 0.00 0.00 0.00 0.00 0.00 0.01 0.01 0.01 0.02 0.03 0.04 0.05 0.04 0.04 0.05 0.07 0.08 0.09 0.10 0.14 0.18 0.26 0.40 0.53 0.62 0.64 0.63 0.64
0.01 0.01 0.01 0.00 0.00 0.00 0.00 0.00 0.00 0.00 0.00 0.00 0.00 0.00 0.00 0.00 0.00 0.00 0.00 0.00 0.00 0.00 0.01 0.02 0.03 0.04 0.05 0.04 0.03 0.04 0.06 0.09 0.12 0.13 0.20 0.28 0.35 0.44 0.53 0.60 0.64 0.61 0.54